Stations météo

réclame
Mon MeteoGroup
Inverbervie, Grande-Bretagne (3088): Température de l'air & dewpoint: 26.11.2020 03:00:00 - 02.12.2020 03:00:00 (GMT)Inverbervie, Grande-Bretagne (3088): Température de l'air -20cm & Température de l'air -100cm: 26.11.2020 03:00:00 - 02.12.2020 03:00:00 (GMT)Inverbervie, Grande-Bretagne (3088): Vitesse du vent & gusts: 26.11.2020 03:00:00 - 02.12.2020 03:00:00 (GMT)Inverbervie, Grande-Bretagne (3088): Direction du vent: 26.11.2020 03:00:00 - 02.12.2020 03:00:00 (GMT)Inverbervie, Grande-Bretagne (3088): reduced air pressure: 26.11.2020 03:00:00 - 02.12.2020 03:00:00 (GMT)Inverbervie, Grande-Bretagne (3088): visibility: 26.11.2020 03:00:00 - 02.12.2020 03:00:00 (GMT)Inverbervie, Grande-Bretagne (3088): Quantités de précipitations: 26.11.2020 03:00:00 - 02.12.2020 03:00:00 (GMT)
Date & Time tt [°C] td [°C] tt -20cm [°C] tt -100cm [°C] ff [km/h] ff [knt] fx [km/h] fx [knt] dd ppp [hPa] vv [km] rr [mm]
02.12.2020 03:00:00 5,4 5,1 - - 26 14 - - WSW 1015,9 30 0,0
02.12.2020 02:00:00 4,7 4,7 - - 22 12 - - W 1016,6 27 0,0
02.12.2020 01:00:00 3,6 3,6 - - 13 7 - - WNW 1017,8 0,2 0,0
02.12.2020 00:00:00 3,8 3,8 - - 15 8 - - W 1018,4 0,1 0,0
01.12.2020 23:00:00 4,5 4,5 - - 21 11 - - WSW 1019,4 2,1 0,0
01.12.2020 22:00:00 4,0 3,9 - - 18 10 - - WSW 1019,7 0,1 0,0
01.12.2020 21:00:00 3,5 3,0 - - 18 10 - - WSW 1020,7 23 0,0
01.12.2020 20:00:00 3,7 3,1 - - 18 10 - - SW 1021,1 20 0,0
01.12.2020 19:00:00 3,8 2,8 - - 22 12 - - SW 1021,6 23 0,0
01.12.2020 18:00:00 4,0 2,7 - - 18 10 - - SW 1022,0 25 0,0
01.12.2020 17:00:00 4,0 2,3 - - 22 12 - - SW 1022,6 29 0,0
01.12.2020 16:00:00 4,2 1,6 - - 21 11 - - SW 1023,2 25 0,0
01.12.2020 15:00:00 5,0 1,7 - - 22 12 - - SW 1023,4 30 0,0
01.12.2020 14:00:00 5,1 2,1 - - 16 9 - - SW 1024,2 29 0,0
01.12.2020 13:00:00 5,7 1,8 - - 5 3 - - SSW 1025,0 40 0,0
01.12.2020 12:00:00 4,8 1,5 - - 8 4 - - W 1025,6 45 0,0
01.12.2020 11:00:00 5,0 1,8 - - 8 4 - - W 1026,0 40 0,0
01.12.2020 10:00:00 3,9 1,2 - - 9 5 - - NW 1026,4 50 0,0
01.12.2020 09:00:00 3,2 1,2 6,7 8,4 13 7 - - NW 1026,2 50 0,0
01.12.2020 08:00:00 3,1 1,0 - - 11 6 - - WNW 1026,2 50 0,0
01.12.2020 07:00:00 2,9 1,0 - - 18 10 - - NW 1025,9 50 0,0
01.12.2020 06:00:00 2,8 1,0 - - 22 12 - - NW 1025,6 40 0,0
01.12.2020 05:00:00 3,2 1,2 - - 18 10 - - NW 1025,5 45 0,0
01.12.2020 04:00:00 2,3 0,9 - - 16 9 - - WNW 1025,3 30 0,0
01.12.2020 03:00:00 2,6 1,2 - - 16 9 - - WNW 1025,2 35 0,0
01.12.2020 02:00:00 3,1 1,8 - - 18 10 - - NW 1024,7 35 0,0
01.12.2020 01:00:00 3,3 1,9 - - 22 12 - - NW 1024,2 35 0,0
01.12.2020 00:00:00 3,7 2,1 - - 21 11 - - NW 1024,0 30 0,0
30.11.2020 23:00:00 3,9 2,2 - - 22 12 - - NW 1023,3 30 0,0
30.11.2020 22:00:00 4,2 2,8 - - 26 14 - - NW 1022,4 40 0,0
30.11.2020 21:00:00 4,5 2,7 - - 29 16 46 25 NW 1021,1 50 0,0
30.11.2020 20:00:00 4,9 2,8 - - 29 16 50 27 NW 1020,6 30 0,0
30.11.2020 19:00:00 5,1 2,9 - - 31 17 59 32 NW 1019,3 35 0,0
30.11.2020 18:00:00 5,1 2,9 - - 37 20 61 33 NNW 1017,6 40 0,0
30.11.2020 17:00:00 5,3 2,4 - - 37 20 57 31 NNW 1016,7 45 0,0
30.11.2020 16:00:00 5,7 1,9 - - 34 18 57 31 NW 1016,0 45 0,0
30.11.2020 15:00:00 5,7 2,0 - - 41 22 65 35 NW 1014,7 45 0,0
30.11.2020 14:00:00 6,0 2,6 - - 46 25 74 40 NW 1013,5 40 0,0
30.11.2020 13:00:00 6,4 3,9 - - 52 28 78 42 NNW 1012,0 50 0,0
30.11.2020 12:00:00 8,0 6,3 - - 31 17 50 27 NW 1011,3 50 0,2
30.11.2020 11:00:00 7,8 7,6 - - 31 17 - - W 1010,7 45 0,2
30.11.2020 10:00:00 7,2 6,9 - - 31 17 50 27 W 1010,4 45 0,0
30.11.2020 09:00:00 6,9 6,4 6,7 8,5 29 16 50 27 WSW 1010,9 45 0,0
30.11.2020 08:00:00 7,0 6,6 - - 29 16 48 26 WSW 1011,5 50 0,0
30.11.2020 07:00:00 6,6 6,3 - - 35 19 50 27 WSW 1012,6 35 0,0
30.11.2020 06:00:00 6,4 6,2 - - 29 16 - - WSW 1013,8 30 0,0
30.11.2020 05:00:00 5,5 5,3 - - 24 13 - - WSW 1014,9 9 0,0
30.11.2020 04:00:00 5,0 5,0 - - 26 14 - - WSW 1016,1 7 0,0
30.11.2020 03:00:00 4,9 4,8 - - 22 12 - - WSW 1017,2 4,9 0,8
30.11.2020 02:00:00 4,2 4,0 - - 11 6 - - W 1018,5 3,5 1,0
30.11.2020 01:00:00 4,6 4,4 - - 22 12 - - SW 1019,1 5 0,4
30.11.2020 00:00:00 4,9 4,5 - - 28 15 - - WSW 1020,0 12 0,0
29.11.2020 23:00:00 2,4 1,6 - - 11 6 - - WNW 1020,8 5 0,0
29.11.2020 22:00:00 2,8 2,3 - - 13 7 - - WNW 1021,4 8 0,0
29.11.2020 21:00:00 2,6 1,8 - - 13 7 - - WSW 1022,2 12 0,0
29.11.2020 20:00:00 2,8 1,9 - - 11 6 - - W 1022,6 14 0,0
29.11.2020 19:00:00 3,1 2,3 - - 9 5 - - WSW 1022,9 19 0,0
29.11.2020 18:00:00 2,7 2,2 - - 11 6 - - W 1023,0 22 0,0
29.11.2020 17:00:00 2,0 1,2 - - 11 6 - - W 1023,2 11 0,0
29.11.2020 16:00:00 3,1 2,0 - - 15 8 - - SW 1023,3 19 0,0
29.11.2020 15:00:00 4,2 2,3 - - 13 7 - - SSW 1023,5 25 0,0
29.11.2020 14:00:00 4,9 3,5 - - 16 9 - - SSW 1023,8 23 0,0
29.11.2020 13:00:00 5,6 3,0 - - 15 8 - - SW 1024,1 30 0,0
29.11.2020 12:00:00 5,9 4,1 - - 9 5 - - WSW 1024,5 35 0,0
29.11.2020 11:00:00 4,2 2,9 - - 9 5 - - W 1025,0 20 0,0
29.11.2020 10:00:00 3,5 2,0 - - 8 4 - - WNW 1025,3 17 0,0
29.11.2020 09:00:00 6,2 4,3 6,7 8,7 13 7 - - W 1025,3 23 0,0
29.11.2020 08:00:00 4,6 3,3 - - 11 6 - - NW 1025,3 21 0,0
29.11.2020 07:00:00 5,2 3,6 - - 13 7 - - WNW 1025,0 28 0,0
29.11.2020 06:00:00 4,6 3,6 - - 11 6 - - WNW 1025,0 17 0,0
29.11.2020 05:00:00 4,3 3,6 - - 11 6 - - WNW 1024,9 10 0,0
29.11.2020 04:00:00 5,4 4,8 - - 9 5 - - WSW 1024,9 9 0,0
29.11.2020 03:00:00 5,6 4,8 - - 11 6 - - SW 1024,9 11 0,0
29.11.2020 02:00:00 4,2 2,9 - - 8 4 - - WNW 1025,5 24 0,0
29.11.2020 01:00:00 3,4 1,8 - - 8 4 - - NW 1025,7 23 0,0
29.11.2020 00:00:00 3,5 2,0 - - 8 4 - - NW 1026,0 35 0,0
28.11.2020 23:00:00 2,8 1,7 - - 8 4 - - NW 1025,8 29 0,0
28.11.2020 22:00:00 3,4 2,7 - - 8 4 - - NW 1025,6 30 0,0
28.11.2020 21:00:00 2,6 2,2 - - 9 5 - - NW 1025,4 11 0,0
28.11.2020 20:00:00 2,4 2,0 - - 9 5 - - NW 1025,0 12 0,0
28.11.2020 19:00:00 2,4 2,1 - - 8 4 - - WNW 1024,5 11 0,0
28.11.2020 18:00:00 2,2 1,7 - - 9 5 - - NW 1024,2 10 0,0
28.11.2020 17:00:00 2,4 1,4 - - 9 5 - - WNW 1023,8 14 0,0
28.11.2020 16:00:00 3,0 1,6 - - 9 5 - - W 1023,3 20 0,0
28.11.2020 15:00:00 4,0 2,1 - - 8 4 - - NW 1022,6 22 0,0
28.11.2020 14:00:00 5,7 3,3 - - 8 4 - - WSW 1022,1 23 0,0
28.11.2020 13:00:00 5,5 2,9 - - 9 5 - - SSW 1021,7 30 0,0
28.11.2020 12:00:00 5,4 2,6 - - 5 3 - - W 1021,3 50 0,0
28.11.2020 11:00:00 2,7 0,9 - - 11 6 - - NW 1021,0 30 0,0
28.11.2020 10:00:00 2,2 1,1 - - 9 5 - - NW 1020,8 24 0,0
28.11.2020 09:00:00 1,6 1,1 7,0 8,7 13 7 - - WNW 1020,2 20 0,0
28.11.2020 08:00:00 1,4 1,0 - - 9 5 - - WNW 1019,6 16 0,0
28.11.2020 07:00:00 1,6 0,8 - - 9 5 - - NW 1018,8 22 0,0
28.11.2020 06:00:00 2,9 1,5 - - 9 5 - - WSW 1018,0 40 0,0
28.11.2020 05:00:00 2,7 1,7 - - 9 5 - - W 1017,6 40 0,0
28.11.2020 04:00:00 2,3 0,9 - - 8 4 - - WNW 1017,4 35 0,0
28.11.2020 03:00:00 3,1 1,3 - - 11 6 - - SSW 1017,3 35 0,2
28.11.2020 02:00:00 2,1 1,4 - - 9 5 - - WNW 1017,2 23 0,0
28.11.2020 01:00:00 2,7 2,2 - - 8 4 - - NW 1017,0 29 0,0
28.11.2020 00:00:00 3,4 2,1 - - 5 3 - - W 1016,8 45 0,0
27.11.2020 23:00:00 3,9 2,7 - - 9 5 - - SW 1016,8 45 0,0
27.11.2020 22:00:00 3,6 3,2 - - 9 5 - - W 1017,2 50 0,0
27.11.2020 21:00:00 2,9 2,1 - - 11 6 - - W 1017,3 45 0,0
27.11.2020 20:00:00 4,1 2,6 - - 15 8 - - SW 1017,2 50 0,0
27.11.2020 19:00:00 5,0 4,4 - - 28 15 - - SSW 1017,3 18 0,2
27.11.2020 18:00:00 5,0 4,4 - - 16 9 - - SW 1017,2 8 0,0
27.11.2020 17:00:00 5,5 4,4 - - 16 9 - - SW 1017,1 30 0,0
27.11.2020 16:00:00 5,6 4,5 - - 11 6 - - SSW 1017,3 19 0,0
27.11.2020 15:00:00 5,7 4,5 - - 11 6 - - SSW 1017,1 40 0,0
27.11.2020 14:00:00 5,8 4,7 - - 13 7 - - SW 1017,2 45 0,0
27.11.2020 13:00:00 5,8 4,1 - - 9 5 - - SW 1017,5 40 0,0
27.11.2020 12:00:00 5,9 4,2 - - 5 3 - - S 1017,8 35 0,0
27.11.2020 11:00:00 3,5 1,9 - - 8 4 - - NNW 1018,1 50 0,0
27.11.2020 10:00:00 2,4 1,0 - - 9 5 - - NNW 1018,6 45 0,0
27.11.2020 09:00:00 1,9 0,6 7,4 8,9 13 7 - - NNW 1018,5 45 0,0
27.11.2020 08:00:00 1,8 1,1 - - 13 7 - - NNW 1018,4 45 0,0
27.11.2020 07:00:00 1,0 0,5 - - 11 6 - - NNW 1018,3 35 0,0
27.11.2020 06:00:00 1,5 1,2 - - 13 7 - - NNW 1018,2 40 0,0
27.11.2020 05:00:00 1,4 1,2 - - 13 7 - - NNW 1018,6 35 0,0
27.11.2020 04:00:00 0,9 0,4 - - 11 6 - - NW 1018,6 35 0,0
27.11.2020 03:00:00 1,0 0,5 - - 11 6 - - NW 1018,9 50 0,0
27.11.2020 02:00:00 1,6 1,0 - - 15 8 - - NW 1019,1 45 0,0
27.11.2020 01:00:00 2,2 1,8 - - 13 7 - - NW 1019,2 30 0,0
27.11.2020 00:00:00 2,0 1,5 - - 13 7 - - WNW 1019,4 26 0,0
26.11.2020 23:00:00 1,1 0,2 - - 11 6 - - WNW 1019,7 50 0,0
26.11.2020 22:00:00 2,3 1,0 - - 9 5 - - WSW 1019,4 45 0,0
26.11.2020 21:00:00 2,3 0,4 - - 13 7 - - W 1019,1 45 0,0
26.11.2020 20:00:00 2,0 0,5 - - 8 4 - - NW 1019,1 50 0,0
26.11.2020 19:00:00 2,6 0,6 - - 9 5 - - NW 1018,9 45 0,0
26.11.2020 18:00:00 2,5 0,9 - - 11 6 - - NW 1019,1 50 0,0
26.11.2020 17:00:00 3,1 1,6 - - 15 8 - - WNW 1019,1 50 0,0
26.11.2020 16:00:00 3,8 1,7 - - 18 10 - - WSW 1018,8 45 0,0
26.11.2020 15:00:00 5,4 2,0 - - 15 8 - - W 1018,7 50 0,0
26.11.2020 14:00:00 6,1 1,9 - - 15 8 - - WSW 1018,9 45 0,0
26.11.2020 13:00:00 6,4 2,2 - - 21 11 - - W 1018,9 50 0,0
26.11.2020 12:00:00 4,7 3,4 - - 8 4 - - WNW 1019,2 45 0,0
26.11.2020 11:00:00 4,4 2,9 - - 8 4 - - NW 1019,5 50 0,0
26.11.2020 10:00:00 5,1 2,7 - - 8 4 - - NNW 1019,3 40 0,0
26.11.2020 09:00:00 4,3 2,4 7,7 9,0 11 6 - - NW 1019,3 50 0,0
26.11.2020 08:00:00 4,0 2,9 - - 13 7 - - NW 1019,0 50 0,0
26.11.2020 07:00:00 3,5 2,9 - - 13 7 - - NW 1018,7 50 0,0
26.11.2020 06:00:00 4,1 3,3 - - 13 7 - - NNW 1018,2 45 0,0
26.11.2020 05:00:00 4,7 3,8 - - 15 8 - - NNW 1017,9 50 0,0
26.11.2020 04:00:00 4,8 3,8 - - 15 8 - - NNW 1017,5 50 0,0
26.11.2020 03:00:00 5,1 4,1 - - 15 8 - - NW 1017,3 50 0,0

tt = Température de l'air
td = dewpoint
tt -20cm = Température de l'air -20cm
tt -100cm = Température de l'air -100cm
ff = Vitesse du vent
fx = gusts
dd = Direction du vent
ppp = reduced air pressure
vv = visibility
rr = Quantités de précipitations

stations d'obs. à proximité